Temp
8 8 8 8 8 8 8 7 7 7 6 6 6 6 6 6 6 5 5 5 6 6 6 6 7 7 7 7 7 7 7 7 7 7 7 7 7 7 7 7 7 7
7 7 8 8 8 8 8 8 7 7 7 7 7 6 6 6 6 6 6 5 5 5 6 6 6 6 6 6 6 6 6 6 6 6 6 6 6 6 6 6 6 6
7 7 7 7 8 8 7 7 7 7 7 7 7 7 6 6 6 5 5 5 5 5 5 5 5 5 6 6 6 6 6 6 6 6 6 6 6 6 6 5 5 5
7 7 7 7 7 7 7 7 7 7 7 7 7 6 6 6 5 5 5 5 5 5 4 4 4 5 5 5 5 5 5 5 5 5 5 5 5 5 5 4 4 4
7 7 7 7 7 6 6 6 6 6 6 6 6 6 6 5 5 5 5 4 4 4 4 4 4 4 4 4 4 5 5 4 4 4 4 4 4 4 4 4 3 3
7 7 7 7 6 6 6 6 6 6 6 6 6 6 5 5 5 5 5 4 4 4 4 3 3 3 3 3 4 4 4 4 4 3 3 3 4 3 3 3 3 3
6 6 6 6 6 6 6 6 6 6 6 6 6 5 5 5 5 5 5 5 4 4 3 3 3 3 3 3 3 3 3 3 3 3 3 3 3 2 2 2 2 2
5 5 5 5 5 5 6 6 6 6 6 6 6 5 5 5 5 5 5 4 4 4 3 3 3 3 3 3 2 2 2 2 2 3 2 2 2 2 2 2 1 1
5 5 5 5 5 5 5 6 6 5 5 6 5 5 5 5 5 5 4 4 3 3 3 3 2 2 2 2 2 2 2 2 2 2 2 2 1 2 2 1 1 0
5 5 5 5 5 5 5 6 5 5 5 5 5 5 4 4 4 4 4 4 3 3 3 3 3 2 2 2 2 2 2 2 1 1 2 2 2 2 2 1 1 0
5 5 5 5 5 5 5 5 5 5 4 4 4 4 4 4 4 4 3 3 3 3 3 3 2 2 1 1 1 1 1 1 1 1 1 1 1 2 2 1 1 1
5 5 5 5 5 6 5 5 4 4 4 4 4 4 4 3 3 3 3 3 3 3 2 2 2 1 1 1 1 1 1 0 0 0 0 0 0 1 1 1 1 2
4 5 5 5 5 5 5 5 4 4 4 4 4 3 3 3 3 3 2 2 2 2 2 2 1 1 1 1 0 0 -0 -0 -0 -1 -1 -1 -0 -0 0 1 1 1
4 5 5 5 5 5 4 4 4 4 4 3 3 3 3 3 3 2 2 2 2 1 1 1 1 1 1 0 -0 -0 -1 -1 -1 -1 -1 -1 -1 -1 -1 -0 0 0
4 4 4 5 5 4 4 4 4 4 3 3 3 3 3 3 2 2 1 1 1 1 1 1 1 1 0 0 -0 -1 -1 -1 -1 -1 -2 -2 -2 -2 -2 -2 -1 -1
3 3 4 4 4 4 4 4 3 3 3 3 3 2 2 2 2 1 1 1 1 0 0 0 0 0 0 0 -0 -0 -1 -1 -2 -2 -2 -2 -3 -3 -3 -3 -3 -2
2 2 3 3 3 3 4 3 3 3 3 2 2 2 1 1 1 1 1 1 0 0 0 -0 -0 -0 -0 -0 -0 -0 -1 -1 -2 -2 -3 -3 -3 -4 -4 -4 -4 -4
1 1 1 2 2 2 3 3 3 2 2 2 2 1 1 1 1 1 0 0 0 0 -0 -0 -0 -0 -1 -1 -1 -1 -1 -1 -2 -2 -3 -3 -4 -4 -4 -4 -4 -4
1 1 1 1 1 1 2 2 2 2 2 1 1 1 1 0 -0 -0 -0 -0 -0 -0 -0 -0 -1 -1 -1 -1 -1 -1 -1 -1 -2 -3 -3 -4 -4 -4 -4 -4 -4 -5
1 1 1 1 1 1 1 1 1 1 1 1 1 0 -0 -0 -1 -1 -1 -1 -1 -1 -1 -1 -1 -1 -1 -2 -2 -2 -2 -2 -2 -3 -4 -4 -4 -4 -4 -4 -4 -4
0 1 1 1 1 1 0 0 0 1 1 1 0 -0 -1 -1 -1 -1 -1 -1 -1 -1 -1 -1 -1 -2 -2 -2 -2 -2 -2 -2 -3 -4 -4 -5 -5 -5 -5 -5 -5 -4
0 -0 0 1 1 1 0 -0 -0 -0 0 -0 -1 -1 -1 -1 -1 -2 -2 -2 -2 -2 -2 -2 -2 -2 -2 -2 -2 -3 -3 -3 -3 -4 -5 -5 -5 -5 -6 -6 -6 -5
0 -0 -0 0 1 0 0 -0 -0 -1 -1 -1 -1 -1 -2 -2 -2 -2 -2 -2 -2 -2 -2 -2 -3 -3 -3 -3 -3 -3 -3 -3 -4 -5 -6 -6 -6 -6 -6 -6 -6 -6
-0 -0 -0 -0 -0 0 0 0 -0 -1 -1 -1 -2 -2 -2 -2 -2 -2 -2 -2 -3 -3 -3 -3 -3 -3 -3 -3 -3 -3 -3 -4 -5 -6 -6 -7 -7 -7 -7 -7 -7 -7
-1 -1 -1 -1 -1 -0 0 0 -0 -1 -1 -2 -2 -2 -2 -2 -3 -3 -3 -3 -3 -3 -3 -3 -3 -4 -4 -4 -3 -3 -3 -4 -5 -6 -7 -7 -7 -8 -8 -7 -8 -8
-1 -1 -1 -1 -1 -1 -0 -0 -0 -1 -2 -2 -3 -3 -3 -3 -3 -3 -4 -4 -4 -4 -4 -4 -4 -4 -4 -4 -4 -3 -3 -5 -6 -6 -7 -7 -8 -8 -8 -8 -8 -8
Height
708 709 710 712 714 716 718 719 721 723 724 726 728 730 733 737 741 744 747 750 753 756 758 761 764 766 770 773 775 777 779 781 783 785 786 787 788 789 790 791 792 793
708 709 709 710 710 711 713 715 717 719 721 723 725 727 731 734 737 739 742 746 749 751 754 757 760 763 765 768 771 774 776 778 780 782 783 785 786 787 788 789 790 791
707 708 708 708 707 709 711 713 715 717 719 720 722 724 727 729 733 735 738 741 744 747 750 753 755 758 761 764 767 770 772 774 776 778 781 782 783 785 786 787 788 789
704 705 706 707 708 710 712 713 714 715 716 717 719 721 723 726 729 731 734 737 740 743 745 748 751 754 757 760 763 766 768 770 773 775 777 779 780 782 783 785 786 787
701 703 703 705 707 710 712 712 713 714 715 715 716 719 720 722 725 727 730 733 735 738 741 743 746 749 752 755 758 761 763 766 769 771 773 775 776 778 780 782 783 785
701 700 701 703 706 708 709 710 711 713 714 715 716 716 717 718 721 722 725 727 730 733 735 738 741 744 747 750 753 756 758 761 763 766 768 770 772 774 776 779 780 781
704 702 702 703 705 706 706 706 708 709 711 713 714 714 714 715 716 718 720 723 726 728 730 732 735 738 741 744 747 750 753 756 758 761 763 765 768 770 772 775 776 778
707 707 705 704 703 703 703 704 704 705 706 708 709 710 711 712 712 714 716 718 721 723 725 728 730 732 735 737 740 743 746 749 751 754 757 760 762 765 767 770 773 775
705 705 706 705 703 701 700 700 700 701 703 703 704 705 707 708 709 710 712 714 716 718 720 723 725 727 728 730 732 735 738 741 744 747 749 752 755 758 762 765 768 771
701 702 704 703 701 699 697 696 696 697 698 699 700 702 703 704 706 707 708 709 711 713 715 717 718 720 722 724 726 728 731 734 737 740 743 745 748 751 755 759 762 765
698 699 700 699 698 696 693 693 694 695 695 696 696 697 698 700 702 703 703 704 704 706 708 710 713 715 717 718 721 724 727 730 732 735 737 740 743 746 749 752 755 759
695 696 696 695 694 692 691 691 692 692 692 692 693 693 693 695 696 697 698 698 699 701 703 706 708 711 713 714 717 720 723 726 729 731 733 735 738 741 743 746 750 753
692 691 691 690 690 689 688 688 688 688 688 688 689 689 690 691 692 694 693 693 695 697 700 702 705 707 709 711 714 716 718 721 723 726 729 731 733 736 738 741 744 748
688 688 687 687 686 686 686 685 685 685 684 684 685 685 685 685 687 690 691 691 692 694 696 700 702 703 705 707 709 712 714 716 718 720 723 726 729 731 734 737 740 744
687 685 684 684 683 682 683 683 682 682 681 681 681 680 681 682 684 687 689 689 689 691 693 696 697 698 699 701 704 707 709 712 714 715 718 720 723 726 729 732 736 739
687 685 683 682 682 681 680 680 679 679 678 677 677 677 678 680 682 684 684 684 684 687 689 691 692 693 694 696 698 700 704 707 710 713 715 717 719 722 724 728 731 735
689 686 684 683 681 680 679 677 676 675 674 673 674 674 675 677 679 679 679 678 679 681 683 685 686 688 690 692 694 696 699 702 705 708 711 714 715 717 719 722 726 730
691 688 685 682 680 678 676 675 674 673 671 671 671 671 672 673 674 675 675 675 674 675 677 679 681 684 687 689 691 693 696 698 701 703 705 708 710 713 715 718 721 725
688 686 683 680 677 675 673 672 672 670 668 668 667 668 669 670 670 671 672 671 670 670 671 673 676 680 682 685 688 690 692 695 697 699 701 703 705 708 711 713 715 719
685 682 679 676 674 672 670 669 668 667 666 665 665 666 667 667 669 669 669 668 667 667 668 670 672 675 678 682 685 687 689 692 695 697 698 700 702 704 706 708 710 713
683 681 678 675 673 670 669 667 666 665 664 663 663 663 664 665 666 667 666 666 666 666 666 666 668 671 675 678 681 684 687 690 692 695 696 698 700 702 704 705 707 710
681 679 677 675 673 670 668 667 666 664 663 663 662 662 662 663 664 664 664 664 664 664 664 664 665 668 670 673 677 680 684 687 689 691 693 695 696 698 700 703 705 708
680 678 675 673 671 669 668 666 665 664 662 662 661 659 659 660 660 661 661 661 661 661 661 662 663 664 667 669 673 676 679 682 685 688 691 693 694 695 697 699 702 705
682 679 675 672 670 668 667 665 663 662 661 660 659 657 656 657 657 658 658 658 658 658 659 660 661 662 664 666 668 672 674 676 679 684 688 690 693 695 696 697 699 702
681 679 675 673 671 669 667 665 663 661 659 658 658 656 656 655 655 655 655 655 655 655 657 658 659 660 662 663 665 669 670 672 675 679 683 686 689 692 694 695 697 699
680 677 675 673 671 669 667 665 663 661 659 657 656 655 655 655 654 653 652 651 652 652 654 655 656 657 659 661 663 666 667 668 671 675 678 681 685 688 690 692 694 696
Wind_Speed
40 40 40 39 39 40 39 40 40 41 41 43 44 46 47 47 47 47 49 49 49 49 49 48 47 46 45 44 43 42 40 39 39 37 35 34 33 31 30 29 28 26
39 39 39 40 41 41 41 41 41 41 42 43 44 43 44 45 45 47 49 49 49 49 48 48 47 47 46 45 44 43 41 40 39 38 36 35 34 32 31 30 29 27
38 38 39 40 41 41 40 40 39 40 41 42 42 42 42 43 44 45 47 48 48 48 48 48 47 47 46 45 44 43 43 42 40 39 37 36 35 33 32 30 29 27
40 40 40 41 39 37 36 37 38 40 41 41 42 42 42 42 42 43 45 46 47 47 47 47 47 47 46 45 44 44 43 42 41 39 37 36 35 34 32 30 29 28
39 40 41 41 39 35 33 35 37 38 39 40 41 40 41 41 41 43 44 45 46 46 47 46 46 46 45 45 45 44 44 42 41 40 38 37 36 35 33 32 30 29
37 40 40 39 37 36 35 36 37 37 37 38 39 40 41 41 41 43 44 45 46 46 46 46 46 45 45 45 45 44 44 43 42 41 39 39 38 36 34 33 32 31
34 35 36 36 35 36 37 38 38 38 39 39 39 40 40 41 42 43 43 44 45 46 46 46 46 46 46 46 45 45 44 44 43 42 41 40 38 37 36 35 34 33
33 32 32 33 35 36 37 38 39 40 41 40 41 42 41 42 43 43 43 44 45 46 46 46 46 47 47 47 47 46 45 45 45 44 43 41 39 39 38 36 35 33
33 33 32 32 34 36 38 40 42 42 41 42 43 42 42 43 43 43 43 44 44 45 45 46 47 47 48 49 49 49 48 47 47 47 45 44 43 42 40 39 36 35
34 34 34 35 36 37 40 42 43 42 42 43 43 41 41 42 43 43 44 44 44 45 46 47 48 48 49 49 50 50 50 49 48 48 47 46 46 45 43 41 39 37
34 34 34 36 38 40 42 42 42 41 41 42 41 41 41 41 42 43 44 44 46 46 48 49 49 49 49 49 49 49 49 48 48 48 48 47 46 45 44 43 42 40
31 32 34 37 39 42 42 41 40 40 40 41 41 41 41 41 43 44 44 45 46 47 48 48 48 47 48 48 48 48 47 46 46 46 47 46 46 45 45 45 44 42
28 30 33 36 39 41 41 40 39 39 40 41 41 41 41 41 42 43 45 46 46 46 46 46 46 46 47 47 47 47 47 46 46 46 45 45 45 45 45 45 45 43
30 30 31 34 37 38 38 38 38 39 40 40 40 41 42 42 43 44 44 43 43 44 44 44 44 45 46 46 46 46 46 47 47 46 45 44 44 44 44 44 44 43
31 31 31 33 35 36 37 37 38 38 38 38 40 41 42 42 42 42 41 41 41 41 41 42 44 45 47 47 46 46 46 46 46 46 45 45 44 43 43 43 43 42
30 30 30 31 33 35 36 37 37 37 37 38 39 40 40 39 39 40 41 41 41 40 40 41 44 45 47 48 49 48 47 46 44 44 44 44 43 42 41 41 41 42
30 28 27 28 30 32 35 36 36 36 36 36 37 37 37 37 38 40 41 41 40 40 41 42 44 45 46 47 49 49 48 46 45 44 43 42 42 42 42 41 41 41
30 29 26 25 25 27 30 32 33 33 33 33 34 35 36 37 39 41 41 41 40 41 42 43 43 44 45 46 48 49 49 47 46 44 44 43 43 42 42 42 41 41
34 33 31 28 26 25 26 27 29 30 31 31 33 34 34 36 38 39 40 40 40 40 41 42 42 42 43 45 47 48 50 48 45 44 44 44 43 43 42 42 42 42
38 38 37 36 32 28 25 24 26 28 29 30 31 31 32 35 37 38 38 38 39 39 39 39 40 41 41 43 45 46 48 48 45 42 42 43 42 42 42 42 44 45
37 37 38 38 37 32 27 24 24 26 28 29 29 30 32 34 35 36 36 36 37 37 37 37 39 39 39 41 43 43 44 45 43 41 39 39 39 40 40 41 44 46
37 37 37 37 37 34 30 27 25 25 26 27 28 29 31 31 32 33 34 35 35 36 37 36 37 37 38 39 40 40 40 41 42 40 38 38 38 39 39 38 40 43
39 38 37 37 36 34 32 30 28 26 26 25 25 27 28 29 31 32 33 34 34 35 36 35 34 35 38 38 37 39 40 40 40 39 37 36 36 37 37 37 38 41
36 36 36 36 36 35 34 33 31 28 27 25 25 27 28 29 31 31 31 32 33 34 35 35 34 34 36 36 36 39 40 40 39 37 35 34 33 33 34 35 35 38
34 34 34 34 35 35 35 34 33 31 28 26 25 27 28 29 29 29 30 31 32 33 34 34 33 33 34 35 36 37 39 40 39 37 35 34 33 32 32 32 32 34
33 33 33 33 33 34 35 34 33 32 29 27 26 27 28 28 28 29 30 30 30 31 32 33 33 32 33 34 35 36 38 39 40 38 35 33 32 32 32 31 31 32
Wind_Direction
215 214 214 215 216 216 215 214 212 211 211 211 212 214 215 215 216 215 216 217 218 219 220 220 221 221 221 221 220 220 220 220 219 217 216 215 214 213 213 212 211 211
219 218 217 217 218 219 218 218 217 215 215 215 216 216 217 217 216 217 217 216 217 219 219 220 220 220 220 220 219 219 219 219 219 218 216 216 215 214 214 213 211 210
222 222 222 222 222 221 220 220 220 219 219 219 218 218 218 217 217 217 217 216 217 218 218 219 219 219 219 219 218 218 219 219 219 218 217 217 216 215 215 214 212 211
224 225 225 227 227 226 225 223 222 222 221 221 220 219 219 218 217 217 217 216 216 217 217 218 218 218 218 218 217 218 218 219 219 218 217 216 216 217 215 214 213 212
227 228 229 229 229 230 230 228 227 226 224 223 222 221 219 218 217 216 216 215 215 216 217 216 217 217 216 216 216 216 217 217 218 217 217 216 216 216 215 214 213 213
233 232 232 232 231 231 232 233 232 230 228 227 225 223 221 218 218 217 216 215 215 215 215 215 215 215 215 215 215 215 216 216 216 216 216 216 216 215 215 215 214 214
245 240 237 236 235 234 234 234 234 233 232 231 229 227 223 220 219 218 217 216 215 214 214 214 213 213 213 213 213 213 214 214 215 215 215 215 215 214 214 214 214 213
257 253 248 243 239 237 237 236 236 235 233 231 230 229 226 223 221 219 218 217 215 214 214 213 213 213 212 212 211 211 211 212 213 213 213 212 212 213 213 213 213 213
262 260 256 251 245 241 240 238 237 236 234 232 231 229 227 225 223 220 219 217 215 214 213 213 213 213 212 211 211 210 210 210 211 211 211 210 210 211 212 211 211 211
265 262 259 254 250 246 244 242 239 237 234 233 231 229 227 226 224 222 220 217 215 214 213 213 214 213 212 211 211 211 210 210 210 210 210 210 211 211 210 210 210 210
268 264 260 256 253 251 249 246 242 238 236 234 231 229 227 226 224 221 219 217 215 215 214 214 214 213 212 211 211 211 210 210 209 209 210 210 210 210 210 210 210 210
271 266 262 259 257 256 253 250 244 240 237 235 232 230 228 226 224 222 219 218 217 217 216 215 214 213 213 212 211 211 210 210 210 210 210 209 209 210 210 211 211 211
281 274 268 265 262 260 256 252 247 242 238 236 233 231 228 226 225 223 221 220 219 218 217 216 214 214 214 213 212 210 209 209 209 209 209 209 209 209 210 211 211 211
302 290 280 274 269 264 259 254 249 244 240 237 234 231 230 228 226 225 224 221 220 219 218 217 216 215 214 213 212 210 209 208 208 208 207 207 208 209 209 210 210 211
318 306 294 284 276 269 262 257 251 247 243 238 235 233 231 229 227 226 224 221 220 219 218 217 216 216 215 213 211 210 209 209 208 207 206 206 206 206 207 208 209 210
331 320 306 293 281 272 266 261 255 249 244 240 237 234 232 230 227 225 223 221 219 218 217 217 218 218 217 215 213 211 209 208 208 208 207 205 204 203 204 206 207 208
340 331 317 301 285 275 268 263 257 252 246 241 238 235 232 229 227 225 223 221 218 217 217 218 219 219 218 216 215 213 210 208 207 207 206 206 205 203 202 203 204 206
342 337 329 315 299 285 274 266 260 253 247 243 239 236 233 229 227 226 224 221 218 217 218 219 220 220 219 217 215 214 212 210 208 207 206 205 205 204 203 202 201 203
344 341 337 330 322 308 292 278 266 258 251 246 242 238 234 230 228 226 224 222 218 217 218 219 220 220 219 218 215 214 213 212 209 208 207 206 205 204 203 201 200 200
344 342 339 336 333 326 311 293 276 266 258 251 245 239 234 231 230 227 225 223 220 219 219 219 220 220 218 217 215 213 213 212 210 209 208 207 206 205 203 202 202 200
341 340 338 336 334 331 322 305 286 273 263 255 247 240 235 233 231 229 227 224 222 220 220 220 220 219 217 216 214 212 212 212 210 209 208 208 207 206 204 204 204 202
338 336 334 332 332 330 324 313 298 283 270 259 250 243 238 236 234 232 229 227 224 221 221 221 221 218 215 213 210 208 208 209 209 208 207 206 206 205 204 204 203 202
333 332 330 329 328 325 322 316 307 294 281 268 253 245 240 236 235 233 231 228 225 222 221 221 220 217 214 210 206 204 205 206 206 206 206 205 205 204 202 202 202 203
327 327 326 325 323 320 318 315 310 302 291 278 261 250 245 240 237 234 232 229 226 224 222 221 219 216 212 207 203 202 204 204 202 201 202 203 203 202 202 201 201 203
321 322 323 322 319 316 313 311 308 303 297 285 269 257 250 244 239 234 232 230 227 226 224 221 220 216 209 204 201 200 203 203 199 197 199 200 199 198 199 199 200 202
317 318 319 318 316 313 310 307 303 300 295 286 274 263 255 248 241 234 231 229 227 225 224 221 220 216 209 204 201 200 203 202 197 196 198 197 195 195 195 196 198 199